Home > Weather > Eupen > Past weeks

Flag for Belgium Weather for the Past 2 Weeks in Eupen, Belgium

Now
46 °F

Sunny.


Feels Like: 41 °F
Forecast: 42 / 49 °F
Wind: 9 mph from South

Location: Spa / La Sauveniere

Current Time: Feb 6, 2016 at 5:33:14 PM

Latest Report: Feb 6, 2016 at 4:00 PM


Visibility: 25 mi

Pressure: 29.77 "Hg

Humidity: 75%

Dew point: 38 °F

Location of EupenLocation

Historic Weather in Eupen — Graph

°F

Eupen Temperature Yesterday

Maximum temperature yesterday: 46 °F (at 5:00 PM)
Minimum temperature yesterday: 39 °F (at 4:00 AM)
Average temperature yesterday: 44 °F

High & Low Weather Summary for the Past Weeks

 TemperatureHumidityPressure
High52 °F (Jan 25, 3:00 PM)99% (Jan 23, 9:00 AM)30.60 "Hg (Jan 23, 9:00 AM)
Low29 °F (Jan 22, 6:00 PM)52% (Jan 25, 3:00 PM)29.77 "Hg (Feb 6, 4:00 PM)
Average41 °F89%30.20 "Hg
* Reported Jan 22 4:00 PM — Feb 6 4:00 PM, Eupen, Weather by CustomWeather, © 2016

Note: Actual official high and low records may vary slightly from our data, if they occured in-between our weather recording intervals... More about our weather records

Advertising

Eupen Weather History for the Previous 24 Hours

 ConditionsComfort  
Time TempWeatherWind HumidityBarometerVisibility
4:00 PM
Sat, Feb 6
46 °FSunny.9 mph75%29.77 "Hg25 mi
3:00 PM45 °FPassing clouds.8 mph78%29.82 "Hg19 mi
2:00 PM45 °FOvercast.8 mph79%29.87 "Hg22 mi
1:00 PM44 °FScattered clouds.8 mph77%29.88 "Hg25 mi
12:00 PM44 °FPartly sunny.7 mph79%29.90 "Hg25 mi
11:00 AM43 °FPartly sunny.7 mph83%29.93 "Hg25 mi
10:00 AM43 °FLow clouds.9 mph86%29.93 "Hg17 mi
9:00 AM42 °FScattered clouds.9 mph90%29.92 "Hg11 mi
8:00 AM42 °FLow clouds.7 mph90%29.94 "Hg9 mi
7:00 AM42 °FPassing clouds.8 mph90%29.94 "Hg9 mi
6:00 AM42 °FClear.7 mph89%29.97 "Hg11 mi
5:00 AM42 °FClear.9 mph90%29.98 "Hg11 mi
4:00 AM43 °FPassing clouds.9 mph91%30.00 "Hg11 mi
3:00 AM43 °FPassing clouds.8 mph89%30.03 "Hg22 mi
11:00 PM
Fri, Feb 5
44 °FPassing clouds.7 mph89%30.12 "Hg28 mi
10:00 PM45 °FPassing clouds.7 mph90%30.14 "Hg11 mi
9:00 PM45 °FLow clouds.6 mph90%30.15 "Hg18 mi
8:00 PM45 °FPassing clouds.5 mph91%30.17 "Hg28 mi
7:00 PM45 °FOvercast.7 mph91%30.18 "Hg28 mi
6:00 PM45 °FLow clouds.6 mph92%30.19 "Hg14 mi
5:00 PM46 °FLow clouds.5 mph89%30.20 "Hg28 mi
Weather by CustomWeather, © 2016

See weather overviewHow to use our weather pages